Total_Precipitation_Accumulation
1.68 1.88 1.75 1.58 1.58 1.54 1.70 1.92 2.00 1.72 1.51 1.43 1.41 1.43 1.64 1.74 1.92 1.81 1.65 1.72 1.55 1.38 1.29 1.24 1.27 1.36 1.42 1.46 1.54 1.65 1.79 1.90 2.02 2.25 2.60 2.96 3.30 3.62
1.79 1.95 1.91 1.77 1.75 1.66 1.70 1.86 2.07 2.01 1.73 1.47 1.50 1.48 1.57 1.45 1.64 1.52 1.55 1.69 1.53 1.43 1.39 1.33 1.29 1.32 1.34 1.40 1.43 1.44 1.45 1.47 1.46 1.52 1.65 1.85 2.08 2.39
1.77 1.83 1.84 1.97 1.97 1.89 2.00 2.05 2.12 2.23 2.02 1.64 1.67 1.79 1.81 1.62 1.57 1.50 1.48 1.48 1.43 1.46 1.38 1.35 1.29 1.24 1.19 1.15 1.22 1.28 1.29 1.31 1.31 1.32 1.33 1.35 1.37 1.47
1.81 1.95 1.87 1.94 2.00 2.06 2.22 2.12 2.19 2.47 2.39 2.05 2.00 2.09 1.99 1.86 1.80 1.68 1.45 1.37 1.36 1.52 1.42 1.33 1.26 1.18 1.14 1.10 1.10 1.13 1.14 1.16 1.18 1.18 1.18 1.15 1.13 1.14
1.91 1.99 2.03 2.21 2.11 2.15 2.20 2.14 2.19 2.44 2.63 2.39 2.21 2.31 2.27 2.06 2.01 1.78 1.62 1.63 1.42 1.46 1.48 1.37 1.28 1.22 1.14 1.12 1.11 1.07 1.02 1.00 0.98 1.01 1.06 1.11 1.14 1.16
2.02 2.05 2.08 2.16 2.22 2.36 2.35 2.41 2.56 2.74 2.88 2.73 2.58 2.66 2.69 2.58 2.37 2.00 1.87 1.76 1.62 1.47 1.52 1.43 1.37 1.31 1.21 1.13 1.08 1.07 1.06 1.03 1.01 0.99 1.00 1.03 1.08 1.12
1.98 2.03 2.01 2.13 2.20 2.30 2.23 2.42 2.73 2.92 3.05 3.07 3.01 3.15 3.09 2.98 2.64 2.26 2.16 2.04 1.86 1.61 1.52 1.40 1.37 1.30 1.26 1.24 1.18 1.14 1.11 1.09 1.08 1.09 1.09 1.07 1.07 1.09
2.07 2.10 2.08 2.07 1.99 2.01 2.08 2.21 2.40 2.59 2.82 3.03 3.10 3.18 3.21 3.11 2.92 2.65 2.31 2.05 1.86 1.70 1.71 1.57 1.45 1.37 1.24 1.16 1.27 1.24 1.16 1.13 1.11 1.10 1.12 1.14 1.17 1.20
2.11 2.13 1.95 1.82 1.87 1.77 1.91 1.97 1.94 1.99 2.12 2.40 2.61 2.66 2.90 3.03 2.94 2.59 2.27 2.00 1.79 1.73 1.77 1.64 1.52 1.41 1.29 1.26 1.36 1.23 1.17 1.14 1.10 1.07 1.08 1.10 1.13 1.18
1.92 1.95 1.93 1.83 1.82 1.90 1.90 1.77 1.60 1.55 1.67 1.68 1.76 2.02 2.33 2.68 2.80 2.67 2.61 2.31 1.98 1.75 1.68 1.62 1.46 1.36 1.28 1.24 1.37 1.28 1.18 1.14 1.11 1.08 1.03 1.01 1.01 1.04
1.87 1.87 1.84 1.71 1.84 1.80 1.73 1.72 1.60 1.49 1.50 1.53 1.57 1.77 2.06 2.34 2.58 2.61 2.52 2.41 2.12 1.79 1.65 1.59 1.45 1.43 1.37 1.27 1.24 1.28 1.18 1.15 1.14 1.11 1.08 1.06 1.04 1.05
1.92 1.93 1.94 1.78 1.85 1.80 1.75 1.76 1.65 1.55 1.54 1.51 1.52 1.57 1.64 1.95 2.28 2.29 2.27 2.32 2.17 1.91 1.62 1.60 1.50 1.50 1.47 1.22 1.05 1.02 1.05 1.14 1.16 1.11 1.07 1.06 1.08 0.96
1.88 1.83 1.84 1.84 1.67 1.57 1.51 1.51 1.56 1.59 1.59 1.51 1.44 1.44 1.50 1.62 1.84 1.94 2.02 2.05 1.99 1.78 1.53 1.59 1.54 1.49 1.41 1.24 1.09 1.02 0.96 0.95 0.97 1.00 1.04 1.07 1.07 0.93
1.70 1.67 1.66 1.62 1.42 1.28 1.14 1.11 1.18 1.18 1.24 1.32 1.31 1.27 1.29 1.36 1.53 1.80 1.98 2.00 1.90 1.77 1.72 1.67 1.58 1.53 1.48 1.34 1.16 1.04 0.98 0.92 0.85 0.80 0.82 1.06 1.11 1.11
1.42 1.62 1.61 1.47 1.34 1.25 1.18 1.10 1.02 0.94 1.02 1.12 1.07 1.07 1.12 1.22 1.38 1.69 1.95 2.14 2.04 1.79 1.66 1.63 1.58 1.55 1.51 1.31 1.08 0.96 0.95 0.91 0.84 0.81 0.82 0.89 0.94 1.01
1.36 1.53 1.61 1.59 1.50 1.40 1.29 1.12 0.95 0.93 0.95 1.00 1.06 1.10 1.21 1.29 1.36 1.45 1.71 1.92 2.02 1.86 1.60 1.54 1.55 1.56 1.45 1.27 1.14 0.98 0.89 0.86 0.82 0.85 0.91 0.92 0.95 0.99
1.50 1.59 1.70 1.73 1.71 1.60 1.44 1.29 1.18 1.13 1.08 1.07 1.16 1.20 1.24 1.26 1.25 1.29 1.47 1.62 1.62 1.52 1.44 1.45 1.51 1.57 1.57 1.47 1.25 0.99 0.90 0.83 0.80 0.91 1.04 1.02 0.93 0.94
1.38 1.52 1.79 1.86 1.87 1.84 1.73 1.55 1.40 1.31 1.24 1.23 1.25 1.24 1.25 1.29 1.33 1.37 1.46 1.57 1.55 1.44 1.39 1.38 1.52 1.66 1.64 1.52 1.26 1.04 0.92 0.87 0.87 0.98 1.05 1.03 0.94 0.91
1.12 1.31 1.61 1.82 1.90 1.92 1.84 1.64 1.45 1.42 1.46 1.41 1.36 1.32 1.31 1.34 1.43 1.46 1.50 1.59 1.64 1.58 1.49 1.52 1.61 1.69 1.61 1.34 1.12 1.01 1.02 1.00 1.05 1.05 1.04 1.03 0.98 0.93
1.07 1.22 1.47 1.75 1.88 1.94 1.91 1.83 1.68 1.61 1.60 1.55 1.50 1.45 1.42 1.44 1.44 1.45 1.48 1.51 1.55 1.64 1.59 1.56 1.57 1.55 1.50 1.41 1.30 1.14 1.11 1.18 1.23 1.19 1.13 1.16 1.13 1.13
1.23 1.28 1.39 1.59 1.79 1.92 1.92 1.88 1.81 1.74 1.72 1.73 1.68 1.63 1.59 1.62 1.56 1.48 1.49 1.57 1.58 1.61 1.52 1.32 1.29 1.49 1.67 1.83 1.67 1.29 1.15 1.20 1.31 1.38 1.33 1.36 1.31 1.25
1.35 1.36 1.41 1.54 1.74 1.91 1.95 1.90 1.91 1.85 1.82 1.78 1.73 1.68 1.64 1.67 1.66 1.63 1.64 1.67 1.60 1.56 1.54 1.47 1.54 1.72 1.77 1.75 1.55 1.39 1.30 1.26 1.34 1.40 1.37 1.31 1.27 1.18
1.52 1.49 1.51 1.61 1.73 1.82 1.82 1.76 1.76 1.82 1.79 1.74 1.70 1.67 1.62 1.59 1.60 1.66 1.67 1.70 1.67 1.65 1.70 1.75 1.75 1.73 1.64 1.62 1.56 1.50 1.47 1.42 1.41 1.37 1.22 1.17 1.05 0.96